This is the latest recevied weather packets stored in our database for station/object WD7OO. If no packets are shown the sender has not sent any weather packets the latest 10 day(s).
| Time | Temp. | Humidity | Pressure | Rain* | Wind** | Luminosity | Snow |
|---|---|---|---|---|---|---|---|
| 1777951735 | 13.89° C | 98% | 1002.9 hPa | 1.27 mm | - | 0 W/m² | - |
| 1777951432 | 13.89° C | 98% | 1002.2 hPa | 0 mm | - | 0 W/m² | - |
| 1777951129 | 13.89° C | 98% | 1001.8 hPa | 0 mm | - | 0 W/m² | - |
| 1777950825 | 13.89° C | 97% | 1001.1 hPa | 3.05 mm | - | 0 W/m² | - |
| 1777950523 | 13.89° C | 97% | 1000.9 hPa | 6.1 mm | - | 0 W/m² | - |
| 1777950218 | 13.89° C | 96% | 1002.1 hPa | 4.83 mm | - | 0 W/m² | - |
| 1777949914 | 13.89° C | 96% | 1002.1 hPa | 3.05 mm | - | 0 W/m² | - |
| 1777949612 | 13.89° C | 95% | 1002 hPa | 4.32 mm | - | 0 W/m² | - |
| 1777949310 | 13.89° C | 96% | 1002.4 hPa | 4.83 mm | - | 0 W/m² | - |
| 1777949008 | 13.89° C | 97% | 1002.7 hPa | 4.83 mm | - | 0 W/m² | - |
| 1777948705 | 13.89° C | 97% | 1002.7 hPa | 13.72 mm | - | 0 W/m² | - |
| 1777948401 | 13.89° C | 97% | 1002.9 hPa | 22.86 mm | - | 0 W/m² | - |
| 1777948099 | 14.44° C | 96% | 1003.5 hPa | 12.7 mm | - | 0 W/m² | - |
| 1777947796 | 14.44° C | 95% | 1002.7 hPa | 24.64 mm | - | 0 W/m² | - |
| 1777947493 | 14.44° C | 96% | 1003 hPa | 24.64 mm | - | 0 W/m² | - |
| 1777947190 | 14.44° C | 95% | 1002.9 hPa | 10.67 mm | - | 0 W/m² | - |
| 1777946885 | 14.44° C | 94% | 1003.2 hPa | 3.05 mm | - | 0 W/m² | - |
| 1777946581 | 15° C | 94% | 1002.7 hPa | 0 mm | - | 0 W/m² | - |
| 1777946278 | 15° C | 93% | 1002.6 hPa | 0 mm | - | 0 W/m² | - |
| 1777945975 | 15° C | 92% | 1002.4 hPa | 1.78 mm | - | 0 W/m² | - |
| 1777945672 | 15.56° C | 91% | 1002.1 hPa | 3.05 mm | - | 0 W/m² | - |
| 1777945370 | 15.56° C | 94% | 1002.3 hPa | 1.27 mm | - | 0 W/m² | - |
| 1777945066 | 16.11° C | 94% | 1001.9 hPa | 0 mm | - | 0 W/m² | - |
| 1777944763 | 16.11° C | 92% | 1001.1 hPa | 0 mm | - | 0 W/m² | - |
| 1777944461 | 16.11° C | 91% | 1001 hPa | 0 mm | - | 0 W/m² | - |
* Rain latest hour (hover to see other rain measurements)
** Current wind speed in m/s (hover to see current wind gust speed)